STAL23 YAMB-YSNW

Flight info

Callsign STAL23
Flight time 1h 26m
Altitude 39000
Route TATEN DCT APAGI/N0427F380 H91 IGDAM/N0424F390 H652 TESAT/N0425F400 H65 WOL H20 NWA
Aircraft C17/H-SDE1E2FGHIJ5RTUWXY/LB1D1

Departure

Time 2026-05-08 03:46
Airport RAAF Base Amberley (YAMB)

Arrival

Time 2026-05-08 05:12
Airport Naval Air Station Nowra - HMAS Albatross (YSNW)
Time Latitude Longitude Altitude Speed Heading
2026-05-08 03:41 -27.62205 152.70335 96 ft 9 kts 116°
2026-05-08 03:42 -27.62222 152.70413 99 ft 11 kts 95°
2026-05-08 03:42 -27.62210 152.70475 101 ft 7 kts 62°
2026-05-08 03:42 -27.62199 152.70523 99 ft 5 kts 116°
2026-05-08 03:42 -27.62223 152.70550 99 ft 5 kts 159°
2026-05-08 03:43 -27.62231 152.70554 99 ft 0 kts 159°
2026-05-08 03:45 -27.62235 152.70556 101 ft 9 kts 159°
2026-05-08 03:46 -27.62593 152.70708 100 ft 99 kts 159°
2026-05-08 03:46 -27.63464 152.71088 338 ft 160 kts 160°
2026-05-08 03:46 -27.64470 152.71531 1357 ft 187 kts 159°
2026-05-08 03:46 -27.65765 152.72104 2015 ft 201 kts 160°
2026-05-08 03:47 -27.66634 152.72488 2405 ft 204 kts 160°
2026-05-08 03:47 -27.68486 152.73130 3220 ft 210 kts 179°
2026-05-08 03:47 -27.69904 152.73046 3756 ft 210 kts 186°
2026-05-08 03:47 -27.70890 152.72970 3683 ft 213 kts 185°
2026-05-08 03:48 -27.72333 152.72904 3596 ft 205 kts 184°
2026-05-08 03:48 -27.73779 152.72843 3645 ft 208 kts 184°
2026-05-08 03:48 -27.75177 152.72775 4240 ft 204 kts 183°
2026-05-08 03:48 -27.76604 152.72705 4894 ft 203 kts 184°
2026-05-08 03:49 -27.78053 152.72622 5097 ft 212 kts 184°
2026-05-08 03:49 -27.79488 152.72549 5083 ft 204 kts 184°
2026-05-08 03:49 -27.80905 152.72481 5340 ft 198 kts 184°
2026-05-08 03:49 -27.82320 152.72412 5837 ft 207 kts 184°
2026-05-08 03:50 -27.83724 152.72345 6333 ft 201 kts 184°
2026-05-08 03:50 -27.85148 152.72275 6814 ft 207 kts 185°
2026-05-08 03:50 -27.86575 152.72206 7287 ft 205 kts 185°
2026-05-08 03:50 -27.88113 152.72127 7790 ft 253 kts 185°
2026-05-08 03:51 -27.89948 152.72035 8312 ft 262 kts 185°
2026-05-08 03:51 -27.91803 152.71953 8821 ft 272 kts 185°
2026-05-08 03:51 -27.93691 152.71862 9330 ft 272 kts 185°
2026-05-08 03:51 -27.95609 152.71766 9844 ft 279 kts 185°
2026-05-08 03:52 -27.97546 152.71673 10319 ft 279 kts 185°
2026-05-08 03:52 -27.99502 152.71577 10791 ft 284 kts 185°
2026-05-08 03:52 -28.01478 152.71482 11293 ft 280 kts 185°
2026-05-08 03:52 -28.03428 152.71389 11851 ft 286 kts 186°
2026-05-08 03:53 -28.05485 152.71283 12294 ft 306 kts 185°
2026-05-08 03:53 -28.07590 152.71183 12688 ft 295 kts 186°
2026-05-08 03:53 -28.09645 152.71088 13148 ft 299 kts 186°
2026-05-08 03:53 -28.11679 152.70700 13641 ft 293 kts 203°
2026-05-08 03:54 -28.13570 152.69826 14150 ft 296 kts 206°
2026-05-08 03:54 -28.15491 152.68941 14612 ft 299 kts 205°
2026-05-08 03:54 -28.17559 152.68003 15116 ft 337 kts 205°
2026-05-08 03:54 -28.19718 152.67025 15610 ft 333 kts 205°
2026-05-08 03:55 -28.21907 152.66032 16103 ft 343 kts 205°
2026-05-08 03:55 -28.24115 152.65026 16602 ft 341 kts 205°
2026-05-08 03:55 -28.26327 152.64018 17112 ft 346 kts 206°
2026-05-08 03:55 -28.28574 152.62993 17623 ft 348 kts 206°
2026-05-08 03:56 -28.30823 152.61969 18144 ft 349 kts 206°
2026-05-08 03:56 -28.33067 152.60948 18635 ft 346 kts 206°
2026-05-08 03:56 -28.35412 152.59869 19114 ft 389 kts 206°
2026-05-08 03:56 -28.38093 152.58626 19626 ft 441 kts 206°
2026-05-08 03:57 -28.40957 152.57335 20124 ft 441 kts 205°
2026-05-08 03:57 -28.43850 152.56033 20624 ft 453 kts 206°
2026-05-08 03:57 -28.46787 152.54733 21101 ft 455 kts 202°
2026-05-08 03:57 -28.49913 152.54051 21596 ft 474 kts 189°
2026-05-08 03:58 -28.53239 152.54202 22111 ft 481 kts 179°
2026-05-08 03:58 -28.56543 152.54652 22661 ft 459 kts 178°
2026-05-08 03:58 -28.59646 152.55128 23174 ft 457 kts 179°
2026-05-08 03:58 -28.62840 152.55552 23712 ft 465 kts 180°
2026-05-08 03:59 -28.66078 152.55962 24176 ft 473 kts 180°
2026-05-08 03:59 -28.69383 152.56408 24639 ft 480 kts 179°
2026-05-08 03:59 -28.72698 152.56877 25106 ft 483 kts 180°
2026-05-08 03:59 -28.76061 152.57336 25581 ft 490 kts 180°
2026-05-08 04:00 -28.79460 152.57788 26072 ft 492 kts 181°
2026-05-08 04:00 -28.82856 152.57991 26571 ft 487 kts 191°
2026-05-08 04:00 -28.86165 152.57362 27077 ft 476 kts 203°
2026-05-08 04:00 -28.89203 152.55990 27596 ft 466 kts 214°
2026-05-08 04:01 -28.92096 152.54274 28117 ft 446 kts 215°
2026-05-08 04:01 -28.94631 152.52783 28598 ft 412 kts 217°
2026-05-08 04:01 -28.97192 152.51207 29131 ft 418 kts 217°
2026-05-08 04:01 -28.99651 152.49754 29639 ft 386 kts 217°
2026-05-08 04:02 -29.02078 152.48319 30189 ft 402 kts 218°
2026-05-08 04:02 -29.04572 152.46811 30653 ft 408 kts 218°
2026-05-08 04:02 -29.07096 152.45310 31175 ft 410 kts 218°
2026-05-08 04:02 -29.09642 152.43802 31670 ft 414 kts 218°
2026-05-08 04:03 -29.12207 152.42267 32169 ft 419 kts 219°
2026-05-08 04:03 -29.17389 152.39169 33193 ft 423 kts 219°
2026-05-08 04:03 -29.20025 152.37633 33729 ft 433 kts 216°
2026-05-08 04:04 -29.22985 152.36577 34232 ft 458 kts 203°
2026-05-08 04:04 -29.26242 152.36265 34690 ft 483 kts 191°
2026-05-08 04:04 -29.29663 152.36761 35189 ft 507 kts 180°
2026-05-08 04:04 -29.33083 152.37716 35656 ft 485 kts 176°
2026-05-08 04:05 -29.36425 152.38854 36029 ft 517 kts 174°
2026-05-08 04:05 -29.39698 152.40058 36375 ft 468 kts 174°
2026-05-08 04:05 -29.42624 152.41211 36683 ft 433 kts 174°
2026-05-08 04:05 -29.45490 152.42319 37035 ft 446 kts 175°
2026-05-08 04:06 -29.48546 152.43440 37451 ft 471 kts 175°
2026-05-08 04:06 -29.51703 152.44594 37874 ft 480 kts 175°
2026-05-08 04:06 -29.54905 152.45775 38292 ft 487 kts 174°
2026-05-08 04:06 -29.58178 152.46994 38744 ft 485 kts 174°
2026-05-08 04:07 -29.61301 152.48193 38968 ft 477 kts 174°
2026-05-08 04:07 -29.64410 152.49422 39030 ft 474 kts 174°
2026-05-08 04:07 -29.70605 152.51952 39050 ft 472 kts 173°
2026-05-08 04:08 -29.76763 152.54578 39053 ft 470 kts 172°
2026-05-08 04:08 -29.82837 152.57379 39040 ft 481 kts 162°
2026-05-08 04:09 -29.85801 152.59234 38730 ft 479 kts 168°
2026-05-08 04:09 -29.88793 152.60635 39262 ft 454 kts 172°
2026-05-08 04:09 -29.94754 152.63267 38804 ft 466 kts 172°
2026-05-08 04:10 -30.00791 152.65951 38878 ft 460 kts 172°
2026-05-08 04:10 -30.03676 152.67630 38982 ft 481 kts 151°
2026-05-08 04:10 -30.05979 152.70535 38985 ft 497 kts 134°
2026-05-08 04:11 -30.08409 152.73188 38946 ft 470 kts 158°
2026-05-08 04:11 -30.11279 152.74828 38538 ft 459 kts 171°
2026-05-08 04:11 -30.14190 152.76223 38681 ft 455 kts 170°
2026-05-08 04:11 -30.17095 152.77640 38822 ft 452 kts 169°
2026-05-08 04:12 -30.22862 152.80501 38846 ft 451 kts 169°
2026-05-08 04:12 -30.25726 152.81939 38971 ft 449 kts 169°
2026-05-08 04:12 -30.28724 152.83414 39068 ft 474 kts 169°
2026-05-08 04:13 -30.34818 152.86360 39071 ft 476 kts 169°
2026-05-08 04:13 -30.37886 152.87728 38934 ft 473 kts 172°
2026-05-08 04:13 -30.40974 152.89041 39019 ft 472 kts 172°
2026-05-08 04:14 -30.47148 152.91721 39066 ft 472 kts 172°
2026-05-08 04:14 -30.53267 152.94348 39056 ft 465 kts 175°
2026-05-08 04:15 -30.59475 152.96178 39063 ft 457 kts 181°
2026-05-08 04:15 -30.65622 152.97203 39059 ft 430 kts 195°
2026-05-08 04:16 -30.71500 152.96689 39070 ft 422 kts 200°
2026-05-08 04:16 -30.77289 152.95820 39070 ft 417 kts 202°
2026-05-08 04:17 -30.83030 152.94895 39064 ft 418 kts 202°
2026-05-08 04:17 -30.88801 152.93939 39071 ft 418 kts 202°
2026-05-08 04:18 -30.94544 152.92993 39067 ft 416 kts 202°
2026-05-08 04:18 -31.00305 152.92015 39068 ft 418 kts 202°
2026-05-08 04:19 -31.06048 152.91020 39068 ft 416 kts 202°
2026-05-08 04:19 -31.11786 152.90019 39069 ft 418 kts 202°
2026-05-08 04:20 -31.17534 152.89008 39069 ft 417 kts 202°
2026-05-08 04:20 -31.23276 152.87994 39065 ft 416 kts 202°
2026-05-08 04:21 -31.28796 152.86542 39060 ft 390 kts 217°
2026-05-08 04:21 -31.33348 152.83448 39065 ft 379 kts 225°
2026-05-08 04:22 -31.37995 152.80362 39063 ft 388 kts 218°
2026-05-08 04:22 -31.42838 152.77563 39057 ft 387 kts 220°
2026-05-08 04:23 -31.47529 152.74629 39054 ft 384 kts 219°
2026-05-08 04:23 -31.52294 152.71752 39058 ft 386 kts 220°
2026-05-08 04:24 -31.57052 152.68834 39057 ft 386 kts 219°
2026-05-08 04:24 -31.61808 152.65931 39054 ft 384 kts 220°
2026-05-08 04:25 -31.66544 152.63028 39073 ft 382 kts 219°
2026-05-08 04:25 -31.71246 152.60146 39069 ft 381 kts 219°
2026-05-08 04:26 -31.75921 152.57194 39073 ft 378 kts 223°
2026-05-08 04:26 -31.80407 152.53997 39071 ft 380 kts 219°
2026-05-08 04:27 -31.85185 152.51206 39087 ft 384 kts 218°
2026-05-08 04:27 -31.89857 152.48251 39071 ft 379 kts 219°
2026-05-08 04:28 -31.94549 152.45362 39071 ft 382 kts 219°
2026-05-08 04:28 -31.99244 152.42447 39072 ft 381 kts 219°
2026-05-08 04:29 -32.03927 152.39538 39075 ft 381 kts 219°
2026-05-08 04:29 -32.08617 152.36621 39080 ft 381 kts 218°
2026-05-08 04:30 -32.13286 152.33718 39076 ft 379 kts 218°
2026-05-08 04:30 -32.17967 152.30796 39079 ft 381 kts 218°
2026-05-08 04:31 -32.22645 152.27883 39081 ft 380 kts 218°
2026-05-08 04:31 -32.27312 152.24962 39097 ft 380 kts 218°
2026-05-08 04:32 -32.31217 152.22521 39084 ft 382 kts 218°
2026-05-08 04:32 -32.35906 152.19588 39081 ft 381 kts 218°
2026-05-08 04:33 -32.40590 152.16650 39082 ft 382 kts 218°
2026-05-08 04:33 -32.45279 152.13708 39086 ft 381 kts 218°
2026-05-08 04:34 -32.50731 152.10281 39083 ft 383 kts 218°
2026-05-08 04:34 -32.54679 152.07799 39083 ft 383 kts 218°
2026-05-08 04:35 -32.59377 152.04841 39081 ft 382 kts 218°
2026-05-08 04:35 -32.64044 152.01896 39079 ft 383 kts 218°
2026-05-08 04:36 -32.68755 151.98925 39073 ft 383 kts 218°
2026-05-08 04:36 -32.73447 151.95959 39067 ft 382 kts 218°
2026-05-08 04:37 -32.78151 151.92981 39065 ft 384 kts 218°
2026-05-08 04:37 -32.82865 151.89994 39057 ft 385 kts 218°
2026-05-08 04:38 -32.87596 151.86994 39041 ft 385 kts 218°
2026-05-08 04:38 -32.92311 151.83999 39046 ft 384 kts 217°
2026-05-08 04:39 -32.97031 151.80998 39049 ft 385 kts 217°
2026-05-08 04:39 -33.01761 151.77987 39053 ft 385 kts 217°
2026-05-08 04:40 -33.06475 151.74981 39057 ft 384 kts 217°
2026-05-08 04:40 -33.11195 151.71968 39061 ft 386 kts 217°
2026-05-08 04:41 -33.15944 151.68935 39063 ft 387 kts 217°
2026-05-08 04:41 -33.20680 151.65905 39061 ft 385 kts 217°
2026-05-08 04:42 -33.25413 151.62872 39036 ft 387 kts 217°
2026-05-08 04:42 -33.30172 151.59819 39077 ft 390 kts 216°
2026-05-08 04:43 -33.34900 151.56788 39062 ft 385 kts 216°
2026-05-08 04:43 -33.39656 151.53723 39058 ft 388 kts 216°
2026-05-08 04:44 -33.44377 151.50689 39060 ft 387 kts 216°
2026-05-08 04:44 -33.49105 151.47639 39059 ft 386 kts 216°
2026-05-08 04:45 -33.53842 151.44581 39070 ft 386 kts 216°
2026-05-08 04:45 -33.58555 151.41536 39061 ft 385 kts 216°
2026-05-08 04:46 -33.63286 151.38475 39070 ft 386 kts 216°
2026-05-08 04:46 -33.68002 151.35421 39066 ft 385 kts 216°
2026-05-08 04:47 -33.72719 151.32359 39062 ft 387 kts 215°
2026-05-08 04:47 -33.77456 151.29285 39072 ft 386 kts 215°
2026-05-08 04:48 -33.82178 151.26213 39072 ft 386 kts 215°
2026-05-08 04:48 -33.86907 151.23134 39077 ft 387 kts 215°
2026-05-08 04:49 -33.91641 151.20048 39079 ft 387 kts 214°
2026-05-08 04:49 -33.96323 151.17005 39079 ft 387 kts 214°
2026-05-08 04:50 -34.01116 151.14007 39082 ft 388 kts 214°
2026-05-08 04:50 -34.05884 151.10972 39079 ft 387 kts 214°
2026-05-08 04:51 -34.08289 151.09442 38596 ft 394 kts 214°
2026-05-08 04:51 -34.10696 151.07921 38066 ft 383 kts 213°
2026-05-08 04:51 -34.13017 151.06455 37514 ft 369 kts 213°
2026-05-08 04:51 -34.15248 151.05035 36976 ft 357 kts 213°
2026-05-08 04:52 -34.17422 151.03646 36413 ft 351 kts 213°
2026-05-08 04:52 -34.19578 151.02271 35923 ft 350 kts 212°
2026-05-08 04:52 -34.21729 151.00902 35428 ft 348 kts 212°
2026-05-08 04:52 -34.23850 150.99554 34950 ft 341 kts 212°
2026-05-08 04:53 -34.25927 150.98229 34480 ft 334 kts 212°
2026-05-08 04:53 -34.27969 150.96925 34000 ft 329 kts 212°
2026-05-08 04:53 -34.29985 150.95638 33480 ft 326 kts 211°
2026-05-08 04:53 -34.31976 150.94367 32961 ft 321 kts 211°
2026-05-08 04:54 -34.33929 150.93120 32406 ft 317 kts 211°
2026-05-08 04:54 -34.35875 150.91874 31757 ft 314 kts 211°
2026-05-08 04:54 -34.37786 150.90653 31122 ft 308 kts 212°
2026-05-08 04:54 -34.39662 150.89453 30509 ft 302 kts 212°
2026-05-08 04:55 -34.41504 150.88274 29867 ft 297 kts 212°
2026-05-08 04:55 -34.43315 150.87112 29161 ft 293 kts 212°
2026-05-08 04:55 -34.45048 150.86006 28469 ft 259 kts 211°
2026-05-08 04:55 -34.46608 150.85005 27768 ft 281 kts 212°
2026-05-08 04:56 -34.48584 150.83704 27209 ft 364 kts 211°
2026-05-08 04:56 -34.50867 150.82245 26659 ft 367 kts 209°
2026-05-08 04:56 -34.53105 150.80840 26047 ft 360 kts 209°
2026-05-08 04:56 -34.55352 150.79484 25369 ft 363 kts 205°
2026-05-08 04:57 -34.57810 150.78624 23612 ft 372 kts 195°
2026-05-08 04:57 -34.60213 150.77998 21527 ft 342 kts 196°
2026-05-08 04:57 -34.62483 150.77340 19578 ft 331 kts 198°
2026-05-08 04:57 -34.64692 150.76664 17643 ft 322 kts 198°
2026-05-08 04:58 -34.66846 150.76026 15653 ft 314 kts 197°
2026-05-08 04:58 -34.68944 150.75421 13784 ft 305 kts 197°
2026-05-08 04:58 -34.70869 150.74868 11752 ft 264 kts 196°
2026-05-08 04:58 -34.72554 150.74373 9912 ft 237 kts 196°
2026-05-08 04:59 -34.73977 150.73954 9101 ft 169 kts 195°
2026-05-08 04:59 -34.74852 150.73705 9050 ft 108 kts 196°
2026-05-08 04:59 -34.75826 150.73398 9089 ft 186 kts 196°
2026-05-08 04:59 -34.77289 150.72966 9460 ft 219 kts 195°
2026-05-08 05:00 -34.78941 150.72439 9217 ft 268 kts 198°
2026-05-08 05:00 -34.80434 150.71480 7960 ft 212 kts 217°
2026-05-08 05:00 -34.80886 150.70051 6687 ft 154 kts 245°
2026-05-08 05:00 -34.81569 150.69406 5184 ft 126 kts 201°
2026-05-08 05:01 -34.82115 150.68672 4261 ft 130 kts 229°
2026-05-08 05:01 -34.82752 150.67404 3223 ft 221 kts 241°
2026-05-08 05:01 -34.83617 150.65731 2939 ft 245 kts 231°
2026-05-08 05:01 -34.84803 150.64498 2755 ft 170 kts 222°
2026-05-08 05:02 -34.85527 150.63854 2400 ft 106 kts 222°
2026-05-08 05:02 -34.86213 150.63344 2135 ft 125 kts 218°
2026-05-08 05:02 -34.86975 150.62722 1856 ft 133 kts 222°
2026-05-08 05:02 -34.87707 150.61986 1760 ft 147 kts 221°
2026-05-08 05:03 -34.88599 150.61206 1738 ft 161 kts 225°
2026-05-08 05:03 -34.89371 150.60402 1632 ft 131 kts 226°
2026-05-08 05:03 -34.89979 150.59706 1529 ft 105 kts 229°
2026-05-08 05:03 -34.90465 150.59112 1377 ft 103 kts 232°
2026-05-08 05:04 -34.90969 150.58438 1217 ft 110 kts 233°
2026-05-08 05:04 -34.91477 150.57800 990 ft 99 kts 232°
2026-05-08 05:04 -34.91945 150.57192 866 ft 100 kts 232°
2026-05-08 05:04 -34.92430 150.56590 734 ft 100 kts 227°
2026-05-08 05:05 -34.92940 150.55991 593 ft 103 kts 232°
2026-05-08 05:05 -34.93411 150.55397 434 ft 91 kts 229°
2026-05-08 05:05 -34.93854 150.54862 396 ft 98 kts 230°
2026-05-08 05:05 -34.94496 150.54047 957 ft 178 kts 231°
2026-05-08 05:06 -34.95485 150.52615 1494 ft 218 kts 240°
2026-05-08 05:06 -34.95520 150.51085 1523 ft 176 kts 296°
2026-05-08 05:06 -34.94523 150.50409 1570 ft 181 kts 351°
2026-05-08 05:06 -34.93204 150.51159 1642 ft 234 kts 38°
2026-05-08 05:07 -34.92068 150.52650 1632 ft 233 kts 43°
2026-05-08 05:07 -34.90978 150.54086 1445 ft 234 kts 44°
2026-05-08 05:07 -34.89848 150.55538 1385 ft 233 kts 42°
2026-05-08 05:07 -34.88714 150.56988 1520 ft 237 kts 43°
2026-05-08 05:08 -34.87665 150.58342 1677 ft 188 kts 43°
2026-05-08 05:08 -34.87070 150.59467 1657 ft 141 kts 81°
2026-05-08 05:08 -34.87427 150.60403 1439 ft 118 kts 152°
2026-05-08 05:08 -34.88111 150.60711 1419 ft 89 kts 190°
2026-05-08 05:09 -34.88637 150.60496 1380 ft 83 kts 213°
2026-05-08 05:09 -34.89205 150.60358 1499 ft 87 kts 199°
2026-05-08 05:09 -34.89792 150.60408 1576 ft 87 kts 183°
2026-05-08 05:09 -34.90391 150.60777 1336 ft 109 kts 141°
2026-05-08 05:10 -34.90622 150.61221 662 ft 87 kts 130°
2026-05-08 05:10 -34.90660 150.61308 394 ft 89 kts 126°
2026-05-08 05:12 -34.90687 150.61410 126 ft 0 kts 253°